www.pogodaiklimat.ru

АРХИВ ПОГОДЫ в Ростове-на-Дону

Время (UTC), дата Ветер
(напр.,м/с)
 
Видим.   Явления Облачность Т
(С)
Тd
(С)
f
(%)
Тe
(С)
Тes
(С)
Комфортность P
(гПа)
Po
(гПа)
Тmin
(С)
Tmax
(С)
R
(мм)
S
(см)
00 25.06 СЗ 4 8000 м {ливн. осадки} 9/3 600 м
[Cb calv Ac trans]
+22.4 +18.7 80 +28 +28 душно 1007.7 999.1
03 25.06 СВ 5 10 км {ливн. осадки} 10/4 600 м
[Cb calv Ac und]
+21.6 +19.2 86 +27 +27 душно 1008.2 999.6 +21.3 0.0
06 25.06 В 4
{10}
10 км {ливн. осадки} 9/4 600 м
[Cb calv Ac trans]
+22.8 +19.4 81 +29 +31 очень
душно
1006.5 998.0 +21.2
09 25.06 СВ 2 10 км в посл. час ливневой дождь 10/4 1000 м
[Cb calv Ac und]
+25.0 +19.7 72 +30 +34 душно 1005.9 997.4
12 25.06 СЗ 1 10 км в посл. час гроза {ливн. осадки} 9/5 1080 м
[Cb calv Ac trans]
+24.6 +19.8 75 +30 +34 очень
душно
1006.0 997.5
15 25.06 Ю 1 10 км 9/1 1000 м
[Cb calv Ac trans Ci fib]
+26.5 +20.5 70 +33 +35 очень
душно
1005.4 997.0 +27.5 3
18 25.06 З 1 8000 м 8/0
[Ac trans]
+23.6 +19.9 80 +29 +29 душно 1005.2 996.7
21 25.06 СВ 2 8000 м слабый ливневой дождь 9/4 600 м
[Cb calv Ac trans]
+22.6 +19.7 84 +29 +29 очень
душно
1004.8 996.3
00 26.06 штиль 0 8000 м зарница {ливн. осадки} 8/3 600 м
[Cb cap Ac trans]
+21.0 +19.1 89 +25 +25 комфорт 1004.1 995.5
03 26.06 штиль 0 4000 м дымка 8/1 600 м
[Cb calv Ac trans Ci fib]
+22.8 +20.4 86 +30 +31 очень
душно
1003.6 995.1 +20.8 0.0
06 26.06 ЮЗ 5 10 км 8/3 1000 м
[Cb calv Ac trans Ci]
+23.3 +18.1 73 +29 +32 душно 1004.2 995.7
09 26.06 Ю 4 10 км 8/1 1000 м
[Cu med, cong Ac trans Ci fib]
+26.7 +18.0 59 +31 +38 душно 1004.3 995.9
12 26.06 ЮЗ 6 10 км 8/4 1000 м
[Cu med, cong Ac trans Ci]
+26.3 +18.9 64 +31 +34 душно 1004.6 996.2
15 26.06 ЮЗ 5 10 км 8/3 600 м
[Cu hum Ac trans Ci]
+25.0 +18.6 68 +30 +30 душно 1004.2 995.7 +28.0
18 26.06 ЮЗ 3 8000 м зарница 8/3 600 м
[Cb cap Ac trans Ci]
+22.3 +18.6 80 +28 +28 душно 1004.5 996.0
21 26.06 ЮЗ 3 8000 м 8/0
[Ac trans Ci fib]
+20.4 +17.9 86 +24 +24 комфорт 1004.5 995.9
00 27.06 В 1 8000 м 5/0
[Ac trans Ci fib]
+19.3 +17.4 89 +22 +22 комфорт 1004.3 995.7
03 27.06 Ю 2 10 км 6/0
[Ac trans Ci fib]
+19.4 +17.4 88 +22 +23 комфорт 1004.3 995.7 +18.8
06 27.06 ЮЗ 5 10 км 6/4 300 м
[Cu med, cong Ac trans Ci]
+23.2 +18.5 75 +29 +32 душно 1004.1 995.6
09 27.06 ЮЗ 6 10 км 9/4 600 м
[Cb calv Ac trans Ci fib]
+25.7 +17.6 61 +30 +32 душно 1003.9 995.5
12 27.06 З 5 10 км {ливн. осадки} 9/4 1000 м
[Cb calv Ci fib]
+26.7 +16.6 54 +30 +34 душно 1004.2 995.8
15 27.06 З 4
{10}
10 км 8/3 1000 м
[Cu hum Ci]
+24.9 +13.9 50 +27 +28 жарко 1004.7 996.2 +26.8 0.0
18 27.06 штиль 0 10 км 6/0
[Ac trans Ci fib]
+21.2 +15.6 70 +24 +24 комфорт 1005.2 996.6
21 27.06 ЮВ 1 8000 м 8/1 1000 м
[Cb calv Ac trans]
+20.2 +15.9 76 +24 +24 комфорт 1004.9 996.3
00 28.06 ЮЗ 3 8000 м 8/1 1000 м
[Cb calv Ac trans]
+18.7 +16.4 86 +20 +20 тепло 1004.9 996.2
03 28.06 ЮЗ 2 10 км 6/0
[Ac trans]
+17.6 +15.8 89 +18 +19 прохладно 1005.5 996.8 +17.2
06 28.06 ЮЗ 4 10 км 8/5 630 м
[Cu hum Ac trans Ci fib]
+22.4 +16.5 69 +27 +29 душно 1005.9 997.3
09 28.06 ЮЗ 5 10 км 8/5 1080 м
[Cu med, cong Ci fib]
+25.4 +15.7 55 +29 +33 душно 1006.1 997.6
12 28.06 Ю 4 10 км 6/6 1200 м
[Cu med, cong]
+27.0 +15.7 50 +30 +34 душно 1005.4 997.0
15 28.06 З 4 10 км слабый ливневой дождь 8/5 1200 м
[Cb calv Ci fib]
+24.6 +15.9 58 +28 +29 душно 1005.7 997.2 +27.7 0.0
18 28.06 З 4
{13}
8000 м слабый ливневой дождь, в посл. час гроза 10/5 300 м
[Cb calv Ac und]
+18.8 +17.6 93 +20 +20 по сезону 1008.7 1000.0
21 28.06 ЮВ 2 3000 м в посл. час туман {ливн. осадки} 9/4 100 м
[St Ac trans]
+18.7 +17.7 94 +20 +20 по сезону 1009.0 1000.3
00 29.06 ЮВ 1 2700 м дымка {ливн. осадки, туман} 6/4 100 м
[St Ac trans Ci fib]
+18.0 +17.1 94 +19 +19 по сезону 1009.1 1000.4
03 29.06 Ю 1 5000 м в посл. час туман 9/6 210 м
[St Ci fib]
+17.3 +16.9 97 +18 +19 прохладно 1009.5 1000.8 +17.1 14
06 29.06 Ю 4 10 км {туман} 9/6 600 м
[Sc Ci]
+18.6 +16.7 89 +19 +22 прохладно 1010.5 1001.8
09 29.06 Ю 6 10 км 8/5 700 м
[Cb calv Ci fib]
+23.5 +16.7 66 +27 +30 душно 1010.5 1001.9
12 29.06 З 6
{12}
10 км 9/5 900 м
[Cb calv Ci fib]
+23.2 +16.0 64 +28 +30 душно 1011.0 1002.4
15 29.06 З 3 10 км в посл. час ливневой дождь 9/5 900 м
[Cb calv Ac trans]
+21.3 +17.3 78 +25 +26 комфорт 1011.6 1003.0 +24.5 3
18 29.06 ЮЗ 1 8000 м {ливн. осадки} 5/1 600 м
[Cb calv Ac trans]
+19.4 +16.5 83 +22 +22 комфорт 1012.4 1003.7
21 29.06 ЮЗ 2 8000 м 8/3 600 м
[Cb calv Ac trans]
+18.3 +15.7 85 +19 +19 по сезону 1012.5 1003.8
00 30.06 ЮЗ 3 8000 м 9/4 300 м
[Cb calv Ac trans]
+17.5 +15.9 90 +17 +17 по сезону 1012.9 1004.1
03 30.06 ЮЗ 3 10 км 9/4 200 м
[St Ac trans]
+18.1 +16.6 91 +18 +19 прохладно 1012.8 1004.1 +17.3
06 30.06 ЮЗ 3 10 км 9/5 330 м
[Cb calv Ac trans]
+19.7 +17.0 84 +22 +25 комфорт 1013.5 1004.8
09 30.06 ЮЗ 5 10 км 8/5 600 м
[Cb calv Ac trans]
+23.2 +16.1 64 +28 +31 душно 1013.1 1004.5
12 30.06 З 4 10 км 6/4 1000 м
[Cb calv Ac trans]
+24.0 +16.3 62 +27 +32 жарко 1013.1 1004.5
15 30.06 З 4 10 км 6/5 1000 м
[Cb calv Ac trans]
+23.6 +16.9 66 +27 +28 жарко 1013.4 1004.8 +24.5
18 30.06 З 3 8000 м 5/1 600 м
[Cb calv Ac trans]
+20.9 +15.8 73 +25 +25 комфорт 1014.2 1005.5
21 30.06 ЮЗ 2 8000 м 3/0
[Ac trans]
+18.1 +15.8 86 +19 +19 по сезону 1014.6 1005.8
00 1.07 ЮЗ 3 8000 м 6/4 600 м
[Cb calv Ac trans]
+16.8 +15.5 92 +17 +17 по сезону 1015.4 1006.6
03 1.07 ЮЗ 3 10 км 8/4 1000 м
[Cb calv Ac trans]
+18.3 +16.6 90 +19 +19 по сезону 1015.9 1007.1 +16.7
06 1.07 ЮЗ 6 10 км 6/4 600 м
[Cu med, cong Ac trans]
+22.3 +17.2 73 +27 +29 душно 1015.9 1007.3
09 1.07 З 5 10 км 8/5 930 м
[Cb calv Ac trans]
+23.8 +16.0 62 +27 +30 жарко 1016.2 1007.6
12 1.07 З 5
{10}
10 км 6/5 1200 м
[Cb calv Ac trans]
+25.3 +16.2 57 +29 +32 душно 1016.4 1007.8
15 1.07 З 4 10 км 8/3 600 м
[Cb calv Ac trans]
+23.5 +17.4 69 +27 +28 душно 1017.1 1008.5 +25.7
18 1.07 З 2 8000 м 4/0
[Ac trans]
+21.4 +16.7 75 +25 +25 комфорт 1018.0 1009.3
21 1.07 СЗ 2 8000 м 3/0
[Ac trans]
+20.5 +16.8 79 +24 +24 комфорт 1018.4 1009.7

 

Местоположение метеостанции Ростов-на-Дону (Ростовская область, Россия): широта 47.27 долгота 39.82 высота над уровнем моря 75 м.

В архиве по умолчанию представлена погода в Ростове-на-Дону за последнюю неделю. Архивные данные за месяц целиком и за предыдущие месяцы, начиная с января 2011 года, Вы можете получить, выбрав интересующий диапазон дат из раскрывающегося списка и нажав кнопку "Ввод!".

Внимание! Время в таблицах - всемирное. Для получения местного времени необходимо прибавить поправку, которая в Ростове-на-Дону равна 3 ч.

Ветер - указаны скорость ветра в м/с - средняя за 10 мин, порывы в срок и между сроками (в фигурных скобках) и направление, откуда дует ветер: С - северный, СВ - северо-восточный, В - восточный, ЮВ - юго-восточный, Ю - южный, ЮЗ - юго-западный, З - западный, СЗ - северо-западный.
Видимость - горизонтальная дальность видимости в метрах или километрах. При видимости от 1 до 10 км при отсутствии осадков обычно наблюдается дымка, при ухудшении видимости до 1 км и менее - туман. В сухую погоду видимость может ухудшаться дымом, пылью или мглою.
Явления - указаны атмосферные явления, наблюдавшиеся в срок или в последний час перед сроком; фигурными скобками обозначены явления, наблюдавшиеся между сроками (за 1-3 часа до срока); квадратными скобками обозначены град или гололедные отложения с указанием их диаметра в мм.
Облачность - указаны через наклонную черту общая и нижняя облачность в баллах и высота нижней границы облаков в метрах; квадратными скобками обозначены формы облаков: Ci - перистые, Cs - перисто-слоистые, Cc - перисто-кучевые, Ac - высококучевые, As - высокослоистые, Sc - слоисто-кучевые, Ns - слоисто-дождевые, Cu - кучевые, Cb - кучево-дождевые. Подробнее классификацию облаков см. в Атласе облаков (PDF).
T - Температура воздуха - температура, измеренная на высоте 2 м над землей.
Td - Температура точки росы - температура, при понижении до которой содержащийся в воздухе водяной пар достигнет насыщения.
f - Относительная влажность воздуха - влажноcть воздуха, измеренная на высоте 2 м над землей.
Te - Эффективная температура - температура, которую ощущает одетый по сезону человек в тени. Характеристика душности погоды. При расчете учитывается влияние влажности воздуха и скорости ветра на теплоощущения человека.
Tes - Эффективная температура на солнце - температура, которую ощущает человек, с поправкой на солнечный нагрев. Характеристика знойности погоды. Зависит от высоты солнца над горизонтом, облачности и скорости ветра. Ночью, в пасмурную погоду, а также при ветре 12 м/с и более поправка равна нулю.
P - Атмосферное давление - приведенное к уровню моря атмосферное давление.
Po - Атмосферное давление - измеренное на уровне метеостанции атмосферное давление.
Tmin - Минимальная температура - минимум температуры воздуха на высоте 2 м над землей.
Tmax - Максимальная температура - максимум температуры воздуха на высоте 2 м над землей.
R - Количество осадков - Количество выпавших осадков, мм. При наведении курсора мыши на число - период времени, за который выпало указанное количество осадков.
S - Снежный покров - Высота снежного покрова, см. При наведении курсора мыши на число - состояние снежного покрова и степень покрытия местности в баллах.